NOAA 20 (43013 NORAD) Tracking and Keplerian Element Data

This shows tracking and keplerian element data for the satellite.

Feedback or suggestion? Click here.




ElementValue
Catalog43013
NameNOAA 20
Epoch Orbit31875
Epoch Day13.0955604
Epoch Year2024
RAAN313.3847
Inclination98.7348
Eccentricity5.67E-05
Argument of Perigee89.4028
Mean Anonmoly270.7213
Mean Motion14.19561113
Decay Rate1.64E-06
L11 43013U 17073A 24013.09556040 .00000164 00000+0 98502-4 0 9996
L22 43013 98.7348 313.3847 0000567 89.4028 270.7213 14.19561113318758



Live tracking and technical data element details for NOAA 20 (NORAD 43013). NOAA 20 can be tracked NOW for your location showing map with azimuth and elevation plus other details from your city location.







IsCatalogInMostPopularTable: catalog: 43013, numindb: 1100
Update: records affected: 1



GetName: 43013 NOAA 20

Hit Count: updated at: Fri, 19 Apr 2024 11:41:00 GMT